EW7768 Lopez Island WA US current weather conditions

sailwx.info

Wind from 139

Air temperature 15.0° C
Dewpoint 12.1° C

Last reported at 2020-Jul-11 23:00 UTC.
Time now 2020-Jul-11 23:50 UTC

Location: N 48°24' W 122°54'.
View on Google Maps.

See reports from other nearby stations

  
Tides and Currents Weather Stations Pressure Air Temp Water Temp Dewpoint Dewpoint Depression Visibility Wind Speed Wind Dir Waves Ship Positions
date/time (UTC)wind fromknots sea level pressurealtimeterstation pressurevisibilityair tempwater tempwave heightnotes
2020-Jul-11 23:00 139 15.0
2020-Jul-11 22:46 091 15.0
2020-Jul-11 22:30 146 15.0
2020-Jul-11 22:15 252 15.0
2020-Jul-11 22:00 097 14.4
2020-Jul-11 21:45 097 15.0
2020-Jul-11 21:30 102 0 gusting 2 15.0
2020-Jul-11 21:15 107 0 gusting 4 15.6
2020-Jul-11 20:46 103 0 gusting 2 14.4
2020-Jul-11 20:30 068 0 gusting 2 14.4
2020-Jul-11 20:15 068 1 gusting 3 13.9
2020-Jul-11 20:00 092 1 gusting 2 14.4
2020-Jul-11 19:45 101 1 gusting 4 14.4
2020-Jul-11 19:30 096 3 gusting 5 15.6
2020-Jul-11 19:15 069 1 gusting 4 15.0
2020-Jul-11 18:45 079 3 gusting 6 14.4
2020-Jul-11 18:30 063 2 gusting 4 14.4
2020-Jul-11 18:15 077 2 gusting 4 13.9
2020-Jul-11 18:00 077 1 gusting 5 13.9
2020-Jul-11 17:46 103 0 gusting 3 13.3
2020-Jul-11 17:31 113 0 gusting 5 12.8
2020-Jul-11 17:16 089 4 gusting 6 13.3
2020-Jul-11 17:01 078 1 gusting 5 13.3
2020-Jul-11 16:47 097 2 gusting 5 13.3
2020-Jul-11 16:32 092 3 gusting 6 13.3
2020-Jul-11 16:16 071 4 gusting 6 12.8
2020-Jul-11 16:02 102 1 gusting 5 12.8
2020-Jul-11 15:46 098 1 gusting 4 12.8
2020-Jul-11 15:32 111 3 gusting 6 12.8
2020-Jul-11 15:16 098 4 gusting 7 12.8
2020-Jul-11 15:01 072 3 gusting 6 12.8
2020-Jul-11 14:46 084 2 gusting 6 12.8
2020-Jul-11 14:31 098 1 gusting 3 12.2
2020-Jul-11 14:16 113 11.7
2020-Jul-11 14:00 115 11.7
2020-Jul-11 13:46 117 11.1
2020-Jul-11 13:31 109 0 gusting 2 11.1
2020-Jul-11 13:16 115 11.1
2020-Jul-11 13:01 096 0 gusting 3 10.6
2020-Jul-11 12:46 030 10.0
2020-Jul-11 12:30 068 10.0
2020-Jul-11 12:16 110 10.0
2020-Jul-11 12:00 110 9.4
2020-Jul-11 11:46 110 9.4
2020-Jul-11 11:31 110 8.9
2020-Jul-11 11:15 108 9.4
2020-Jul-11 11:00 108 9.4
2020-Jul-11 10:45 108 8.9
2020-Jul-11 10:31 100 0 gusting 0 9.4
2020-Jul-11 10:15 099 8.9
2020-Jul-11 10:00 074 9.4
2020-Jul-11 09:45 073 0 gusting 0 9.4
2020-Jul-11 09:30 072 10.0
2020-Jul-11 09:15 071 9.4
2020-Jul-11 09:00 071 10.0
2020-Jul-11 08:45 070 10.0
2020-Jul-11 08:30 070 10.0
2020-Jul-11 08:15 137 10.0
2020-Jul-11 07:45 136 10.6
2020-Jul-11 07:31 136 10.6
2020-Jul-11 07:16 136 11.1
2020-Jul-11 07:01 136 11.1
2020-Jul-11 06:46 125 11.1
2020-Jul-11 06:33 131 11.7
2020-Jul-11 06:16 129 0 gusting 1 11.7
2020-Jul-11 06:01 062 0 gusting 4 12.2
2020-Jul-11 05:45 134 12.8
2020-Jul-11 05:32 141 12.8
2020-Jul-11 05:16 206 12.8
2020-Jul-11 05:01 177 12.8
2020-Jul-11 04:45 168 12.8
2020-Jul-11 04:31 132 1 gusting 6 13.3
2020-Jul-11 04:17 156 0 gusting 3 13.3
2020-Jul-11 03:46 126 13.3
2020-Jul-11 03:31 133 13.9
2020-Jul-11 03:17 189 13.9
2020-Jul-11 03:01 136 13.9
2020-Jul-11 02:46 245 13.3
2020-Jul-11 02:30 215 0 gusting 6 14.4
2020-Jul-11 02:16 129 2 gusting 5 15.6
2020-Jul-11 02:01 125 1 gusting 4 16.1
2020-Jul-11 01:45 162 1 gusting 6 16.1
2020-Jul-11 01:31 149 1 gusting 5 16.1
2020-Jul-11 01:16 117 0 gusting 5 17.2
2020-Jul-11 01:01 150 2 gusting 6 17.2
2020-Jul-11 00:45 099 1 gusting 6 17.8
2020-Jul-11 00:31 153 3 gusting 6 17.2
2020-Jul-11 00:15 113 1 gusting 5 17.8
2020-Jul-11 00:00 152 2 gusting 6 17.2
2020-Jul-10 23:46 143 1 gusting 5 17.8
2020-Jul-10 23:31 131 1 gusting 6 18.3
2020-Jul-10 23:16 131 1 gusting 6 18.3
2020-Jul-10 23:01 141 1 gusting 6 17.8
2020-Jul-10 22:46 139 2 gusting 6 17.8
2020-Jul-10 22:31 122 1 gusting 6 17.8
2020-Jul-10 22:15 123 1 gusting 6 17.8
2020-Jul-10 22:00 126 1 gusting 4 17.8
2020-Jul-10 21:46 109 0 gusting 4 17.8
2020-Jul-10 21:30 164 2 gusting 5 17.8
2020-Jul-10 21:15 120 1 gusting 5 17.2
2020-Jul-10 21:00 144 2 gusting 5 17.2
2020-Jul-10 20:46 155 0 gusting 4 17.8
2020-Jul-10 20:30 115 1 gusting 5 18.3
2020-Jul-10 20:15 108 1 gusting 5 17.8
2020-Jul-10 20:00 066 2 gusting 4 17.8
2020-Jul-10 19:46 086 2 gusting 4 17.2
2020-Jul-10 19:30 156 2 gusting 4 17.2
2020-Jul-10 19:15 153 0 gusting 3 16.1
2020-Jul-10 19:00 125 0 gusting 2 15.6
2020-Jul-10 18:45 058 0 gusting 2 15.0
2020-Jul-10 18:30 086 0 gusting 2 15.6
2020-Jul-10 18:15 091 0 gusting 3 15.6
2020-Jul-10 18:00 086 1 gusting 4 15.6
2020-Jul-10 17:47 096 1 gusting 2 14.4
2020-Jul-10 17:31 075 0 gusting 2 13.9
2020-Jul-10 17:17 077 0 gusting 3 14.4
2020-Jul-10 17:01 085 1 gusting 4 13.9
2020-Jul-10 16:46 055 1 gusting 3 13.3
2020-Jul-10 16:31 096 0 gusting 3 12.8
2020-Jul-10 16:16 093 0 gusting 2 13.3
2020-Jul-10 16:01 090 0 gusting 3 13.3
2020-Jul-10 15:46 098 0 gusting 3 12.8
2020-Jul-10 15:31 098 1 gusting 4 12.8
2020-Jul-10 15:16 058 2 gusting 5 12.2
2020-Jul-10 15:00 098 2 gusting 3 11.7
2020-Jul-10 14:47 083 3 gusting 6 11.7
2020-Jul-10 14:30 098 3 gusting 6 11.7
2020-Jul-10 14:16 080 2 gusting 4 11.7
2020-Jul-10 14:00 118 11.7
2020-Jul-10 13:45 089 2 11.7
2020-Jul-10 13:31 104 12.2
2020-Jul-10 13:16 139 12.8
2020-Jul-10 13:01 150 1 gusting 4 12.8
2020-Jul-10 12:46 164 0 gusting 6 12.8
2020-Jul-10 12:31 143 2 gusting 5 12.8
2020-Jul-10 12:15 160 1 gusting 6 12.8
2020-Jul-10 12:00 133 1 gusting 6 12.8
2020-Jul-10 11:46 152 4 gusting 9 12.8
2020-Jul-10 11:30 145 0 gusting 7 12.8
2020-Jul-10 11:15 150 3 gusting 6 12.8
2020-Jul-10 11:00 141 3 gusting 6 12.8
2020-Jul-10 10:45 146 3 gusting 10 12.8
2020-Jul-10 10:30 165 3 gusting 7 12.8
2020-Jul-10 10:15 145 2 gusting 7 12.2
2020-Jul-10 10:00 138 4 gusting 10 12.8
2020-Jul-10 09:45 183 1 gusting 8 12.2
2020-Jul-10 09:30 199 1 gusting 8 11.7
2020-Jul-10 09:02 126 11.1
2020-Jul-10 08:47 173 11.1
2020-Jul-10 08:31 244 10.6
2020-Jul-10 08:16 076 11.1
2020-Jul-10 08:02 051 0 gusting 3 11.1
2020-Jul-10 07:46 044 11.1
2020-Jul-10 07:31 229 11.1
2020-Jul-10 07:15 193 11.1
2020-Jul-10 07:01 302 11.1
2020-Jul-10 06:46 112 11.1
2020-Jul-10 06:31 176 0 gusting 6 11.7
2020-Jul-10 06:16 186 2 gusting 6 12.2
2020-Jul-10 06:01 159 12.2
2020-Jul-10 05:46 103 0 gusting 6 12.8
2020-Jul-10 05:31 141 1 gusting 4 12.2
2020-Jul-10 05:16 106 2 gusting 9 12.8
2020-Jul-10 05:01 173 2 gusting 11 12.2
2020-Jul-10 04:45 100 2 gusting 9 12.2
2020-Jul-10 04:30 172 4 gusting 9 12.2
2020-Jul-10 04:15 130 2 gusting 8 12.2
2020-Jul-10 04:00 116 3 gusting 8 12.8
2020-Jul-10 03:45 139 3 gusting 10 13.3
2020-Jul-10 03:30 158 3 gusting 9 13.3
2020-Jul-10 03:15 110 3 gusting 9 13.3
2020-Jul-10 03:01 099 3 gusting 7 13.9
2020-Jul-10 02:45 167 3 gusting 10 13.9
2020-Jul-10 02:30 075 4 gusting 10 13.9
2020-Jul-10 02:15 114 2 gusting 10 13.9
2020-Jul-10 02:00 129 3 gusting 9 13.9
2020-Jul-10 01:46 103 4 gusting 10 14.4
2020-Jul-10 01:30 131 5 gusting 12 14.4
2020-Jul-10 01:15 167 4 gusting 12 15.0
2020-Jul-10 01:00 080 3 gusting 9 15.0
2020-Jul-10 00:45 063 2 gusting 8 15.0
2020-Jul-10 00:30 157 1 gusting 8 15.0
2020-Jul-10 00:15 082 1 gusting 3 15.6
2020-Jul-10 00:00 098 4 gusting 6 15.0
2020-Jul-09 23:45 110 2 gusting 6 15.0
2020-Jul-09 23:30 075 3 gusting 5 15.0
2020-Jul-09 23:15 086 0 gusting 2 15.6
2020-Jul-09 23:00 114 1 gusting 3 15.0